Location: C.E.K. Mees Observatory
(42.7003°N, 77.4088°W)
Time: 19:03:16
(UTC-04:00)

Vanguard 1 Rocket - Visible Passes

Search period start: 22 October 2017 00:00
Search period end: 01 November 2017 00:00
Orbit: 655 x 4222 km, 34.3° (Epoch: 21 October)

Date Brightness Start Highest point End Pass type
(mag) Time Alt. Az. Time Alt. Az. Time Alt. Az.
22 Oct 10.8 04:36:04 10° S 04:39:32 11° SSE 04:42:29 10° SE visible
22 Oct 9.6 06:58:03 10° SW 07:05:44 26° SSE 07:10:44 10° ESE visible
23 Oct 10.1 05:46:02 10° SSW 05:54:27 22° SSE 06:00:01 10° ESE visible
24 Oct 10.6 04:34:40 10° S 04:42:47 18° SSE 04:48:34 10° ESE visible
24 Oct 9.4 07:00:05 10° SW 07:09:00 33° S 07:14:24 10° ESE visible
25 Oct 11.0 03:25:55 11° S 03:30:43 13° SSE 03:35:15 10° SE visible
25 Oct 9.8 05:47:23 10° SW 05:57:43 29° SSE 06:03:58 10° ESE visible
26 Oct 10.3 04:36:59 13° SSW 04:46:01 24° SSE 04:53:03 10° ESE visible
26 Oct 9.2 07:02:22 10° WSW 07:12:14 39° S 07:17:56 10° ESE visible
27 Oct 10.7 03:30:33 17° SSE 03:33:54 19° SSE 03:41:13 10° ESE visible
27 Oct 9.6 05:49:07 10° SW 06:00:56 36° SSE 06:07:39 10° ESE visible
28 Oct 11.1 02:24:01 12° SE 02:24:01 12° SE 02:27:06 10° SE visible
28 Oct 10.0 04:41:21 20° SSW 04:49:11 31° SSE 04:57:01 10° ESE visible
28 Oct 9.0 07:04:50 10° WSW 07:15:27 44° S 07:21:22 10° ESE visible
29 Oct 10.5 03:34:43 24° SSE 03:37:01 25° SSE 03:45:45 10° ESE visible
29 Oct 9.4 05:52:03 12° SW 06:04:07 42° S 06:11:12 10° ESE visible
30 Oct 10.9 02:27:59 18° SE 02:27:59 18° SE 02:33:17 10° ESE visible
30 Oct 9.8 04:45:19 26° SSW 04:52:19 38° SSE 05:00:43 10° E visible
30 Oct 8.9 07:07:24 10° WSW 07:18:37 48° S 07:24:45 10° ESE visible
31 Oct 10.3 03:38:31 32° SSE 03:40:04 32° SSE 03:49:45 10° E visible
31 Oct 9.3 05:55:50 15° WSW 06:07:16 48° S 06:14:38 10° ESE visible
